QPF
0.02 0.02 0.05 0.05 0.04 0.04 0.04 0.03 0.03 0.05 0.04 0.04 0.04 0.04 0.05 0.05 0.07 0.07 0.09 0.09 0.09 0.10 0.08 0.08 0.08 0.08 0.06 0.04 0.04 0.05 0.04 0.04 0.07 0.12 0.13 0.12 0.13 0.12 0.12 0.11 0.09 0.06 0.05
0.02 0.03 0.07 0.07 0.05 0.05 0.06 0.04 0.05 0.04 0.04 0.05 0.06 0.04 0.05 0.07 0.10 0.13 0.16 0.11 0.09 0.08 0.08 0.08 0.10 0.07 0.05 0.04 0.05 0.06 0.05 0.04 0.06 0.12 0.15 0.11 0.09 0.09 0.09 0.08 0.06 0.05 0.04
0.02 0.03 0.06 0.07 0.06 0.05 0.06 0.06 0.06 0.05 0.05 0.05 0.06 0.05 0.05 0.06 0.12 0.15 0.16 0.12 0.08 0.05 0.06 0.07 0.07 0.06 0.05 0.05 0.05 0.05 0.03 0.05 0.08 0.10 0.09 0.06 0.06 0.06 0.06 0.07 0.05 0.05 0.05
0.02 0.02 0.06 0.10 0.09 0.06 0.07 0.08 0.08 0.06 0.04 0.03 0.04 0.04 0.05 0.05 0.09 0.09 0.11 0.11 0.10 0.07 0.05 0.05 0.05 0.04 0.04 0.04 0.05 0.05 0.05 0.04 0.08 0.07 0.04 0.03 0.04 0.07 0.07 0.06 0.06 0.06 0.05
0.02 0.03 0.07 0.11 0.08 0.07 0.06 0.06 0.08 0.07 0.05 0.03 0.03 0.03 0.03 0.04 0.07 0.05 0.05 0.06 0.07 0.06 0.04 0.04 0.04 0.04 0.04 0.06 0.07 0.06 0.06 0.06 0.06 0.03 0.02 0.02 0.05 0.08 0.07 0.06 0.06 0.05 0.04
0.01 0.03 0.06 0.08 0.06 0.05 0.03 0.05 0.07 0.05 0.04 0.04 0.04 0.04 0.03 0.04 0.07 0.07 0.03 0.03 0.05 0.05 0.05 0.04 0.04 0.04 0.05 0.07 0.07 0.06 0.05 0.05 0.03 0.02 0.02 0.02 0.04 0.06 0.08 0.09 0.08 0.07 0.07
0.01 0.02 0.03 0.04 0.03 0.03 0.03 0.03 0.04 0.04 0.03 0.03 0.04 0.04 0.04 0.03 0.05 0.07 0.07 0.05 0.05 0.05 0.04 0.04 0.05 0.05 0.06 0.06 0.05 0.06 0.06 0.03 0.02 0.01 0.01 0.02 0.05 0.07 0.08 0.10 0.10 0.07 0.07
0.01 0.01 0.01 0.02 0.03 0.03 0.04 0.02 0.02 0.02 0.02 0.02 0.02 0.05 0.05 0.03 0.03 0.04 0.07 0.08 0.07 0.05 0.05 0.05 0.05 0.06 0.07 0.06 0.06 0.07 0.07 0.04 0.01 0.01 0.01 0.02 0.06 0.08 0.08 0.09 0.09 0.08 0.06
0.02 0.02 0.02 0.02 0.02 0.02 0.03 0.03 0.02 0.02 0.03 0.02 0.02 0.03 0.04 0.04 0.05 0.05 0.07 0.08 0.06 0.06 0.06 0.06 0.06 0.08 0.07 0.06 0.06 0.07 0.05 0.03 0.01 0.01 0.02 0.04 0.08 0.08 0.07 0.07 0.10 0.10 0.09
0.04 0.04 0.02 0.02 0.02 0.01 0.02 0.03 0.03 0.03 0.03 0.03 0.03 0.03 0.04 0.03 0.04 0.05 0.07 0.08 0.06 0.06 0.06 0.06 0.06 0.07 0.06 0.05 0.05 0.04 0.03 0.02 0.01 0.01 0.02 0.04 0.06 0.07 0.05 0.06 0.09 0.08 0.07
0.03 0.04 0.03 0.03 0.02 0.01 0.01 0.03 0.03 0.03 0.04 0.03 0.02 0.01 0.01 0.01 0.01 0.04 0.05 0.06 0.07 0.08 0.08 0.07 0.06 0.06 0.05 0.04 0.04 0.03 0.02 0.01 0.00 0.01 0.02 0.04 0.06 0.06 0.05 0.06 0.06 0.06 0.07
0.03 0.04 0.06 0.04 0.03 0.03 0.01 0.02 0.02 0.03 0.03 0.02 0.02 0.01 0.01 0.01 0.01 0.03 0.03 0.04 0.07 0.08 0.09 0.07 0.05 0.04 0.02 0.02 0.02 0.01 0.01 0.00 0.00 0.00 0.02 0.05 0.07 0.08 0.07 0.06 0.07 0.07 0.07
0.03 0.04 0.06 0.05 0.03 0.03 0.02 0.02 0.03 0.03 0.03 0.02 0.01 0.01 0.01 0.01 0.01 0.02 0.02 0.03 0.05 0.05 0.04 0.04 0.03 0.03 0.02 0.02 0.01 0.01 0.01 0.01 0.00 0.00 0.03 0.07 0.09 0.08 0.07 0.07 0.06 0.06 0.06
0.02 0.03 0.04 0.03 0.03 0.03 0.03 0.04 0.06 0.05 0.02 0.01 0.01 0.00 0.00 0.00 0.01 0.01 0.02 0.03 0.04 0.03 0.03 0.03 0.04 0.03 0.02 0.02 0.02 0.01 0.02 0.01 0.01 0.01 0.02 0.06 0.07 0.07 0.06 0.05 0.05 0.06 0.06
0.02 0.02 0.02 0.02 0.02 0.03 0.03 0.04 0.05 0.04 0.01 0.00 0.00 0.00 0.00 0.00 0.01 0.00 0.00 0.01 0.02 0.03 0.02 0.04 0.06 0.04 0.03 0.02 0.02 0.02 0.02 0.01 0.01 0.01 0.01 0.04 0.06 0.07 0.05 0.05 0.05 0.06 0.07
0.03 0.03 0.02 0.02 0.02 0.02 0.03 0.03 0.03 0.01 0.01 0.00 0.00 0.00 0.00 0.00 0.01 0.00 0.01 0.01 0.01 0.02 0.02 0.03 0.04 0.04 0.03 0.02 0.02 0.02 0.02 0.01 0.01 0.01 0.01 0.04 0.08 0.05 0.06 0.06 0.06 0.07 0.06
0.04 0.04 0.03 0.03 0.02 0.02 0.02 0.02 0.01 0.01 0.01 0.01 0.01 0.01 0.01 0.01 0.01 0.00 0.00 0.01 0.01 0.02 0.02 0.03 0.03 0.03 0.03 0.02 0.02 0.02 0.01 0.01 0.01 0.01 0.01 0.02 0.03 0.04 0.07 0.10 0.08 0.07 0.05
0.03 0.04 0.03 0.03 0.02 0.02 0.02 0.02 0.02 0.02 0.02 0.02 0.02 0.02 0.02 0.02 0.01 0.01 0.00 0.00 0.00 0.02 0.03 0.02 0.03 0.03 0.02 0.01 0.01 0.01 0.00 0.00 0.00 0.01 0.01 0.02 0.03 0.04 0.06 0.07 0.06 0.05 0.03
0.02 0.02 0.02 0.02 0.02 0.02 0.02 0.02 0.01 0.01 0.01 0.01 0.01 0.02 0.02 0.02 0.02 0.01 0.01 0.01 0.01 0.01 0.03 0.03 0.03 0.02 0.02 0.01 0.01 0.00 0.00 0.00 0.01 0.01 0.01 0.01 0.02 0.02 0.02 0.03 0.04 0.05 0.03
0.02 0.03 0.02 0.02 0.02 0.02 0.02 0.02 0.02 0.01 0.01 0.01 0.01 0.01 0.01 0.01 0.02 0.01 0.01 0.01 0.01 0.02 0.02 0.03 0.02 0.01 0.01 0.01 0.01 0.01 0.01 0.02 0.01 0.01 0.01 0.02 0.01 0.02 0.04 0.04 0.02 0.02 0.02
0.03 0.02 0.02 0.02 0.02 0.01 0.01 0.01 0.01 0.01 0.01 0.01 0.01 0.01 0.01 0.02 0.02 0.02 0.01 0.00 0.01 0.01 0.02 0.03 0.02 0.01 0.01 0.01 0.01 0.01 0.01 0.02 0.02 0.02 0.01 0.01 0.02 0.03 0.03 0.04 0.05 0.03 0.02
0.04 0.03 0.02 0.02 0.02 0.01 0.01 0.01 0.01 0.01 0.01 0.01 0.01 0.01 0.01 0.02 0.02 0.02 0.01 0.00 0.00 0.01 0.01 0.01 0.01 0.01 0.01 0.01 0.02 0.01 0.01 0.02 0.04 0.02 0.02 0.03 0.03 0.03 0.03 0.03 0.03 0.04 0.04
0.03 0.04 0.02 0.02 0.02 0.02 0.01 0.01 0.02 0.01 0.01 0.01 0.01 0.00 0.01 0.01 0.02 0.02 0.01 0.00 0.01 0.01 0.01 0.01 0.01 0.01 0.01 0.01 0.01 0.01 0.01 0.02 0.05 0.04 0.03 0.04 0.04 0.04 0.03 0.02 0.01 0.01 0.02
0.01 0.02 0.02 0.02 0.02 0.02 0.01 0.00 0.01 0.01 0.01 0.01 0.01 0.01 0.01 0.01 0.01 0.02 0.01 0.00 0.01 0.02 0.02 0.02 0.02 0.02 0.02 0.01 0.01 0.01 0.01 0.01 0.02 0.05 0.05 0.05 0.05 0.04 0.02 0.02 0.01 0.00 0.00
0.01 0.02 0.02 0.02 0.01 0.01 0.01 0.00 0.00 0.00 0.00 0.00 0.01 0.01 0.02 0.02 0.01 0.01 0.01 0.01 0.01 0.01 0.02 0.03 0.02 0.02 0.02 0.02 0.02 0.01 0.01 0.00 0.01 0.02 0.04 0.05 0.05 0.04 0.03 0.02 0.01 0.01 0.00
0.02 0.04 0.03 0.02 0.01 0.01 0.01 0.00 0.00 0.00 0.00 0.00 0.00 0.01 0.01 0.02 0.02 0.01 0.01 0.01 0.02 0.01 0.01 0.01 0.01 0.02 0.01 0.02 0.02 0.02 0.01 0.01 0.00 0.01 0.01 0.01 0.02 0.02 0.03 0.02 0.02 0.02 0.00
MSLP
1015.82 1015.03 1014.31 1013.74 1013.32 1013.06 1012.92 1012.85 1012.80 1012.75 1012.68 1012.62 1012.58 1012.59 1012.68 1012.84 1013.04 1013.25 1013.43 1013.55 1013.60 1013.58 1013.53 1013.48 1013.45 1013.47 1013.54 1013.65 1013.77 1013.88 1013.96 1014.00 1014.01 1014.00 1014.00 1014.00 1014.03 1014.06 1014.10 1014.12 1014.12 1014.10 1014.06
1015.92 1015.15 1014.47 1013.93 1013.55 1013.33 1013.21 1013.16 1013.12 1013.07 1012.99 1012.91 1012.86 1012.88 1012.96 1013.12 1013.33 1013.54 1013.72 1013.84 1013.89 1013.87 1013.81 1013.74 1013.71 1013.71 1013.77 1013.85 1013.95 1014.03 1014.09 1014.11 1014.11 1014.09 1014.07 1014.07 1014.09 1014.12 1014.15 1014.17 1014.17 1014.16 1014.14
1015.93 1015.21 1014.59 1014.11 1013.80 1013.63 1013.57 1013.55 1013.53 1013.49 1013.42 1013.34 1013.28 1013.28 1013.35 1013.49 1013.67 1013.85 1014.00 1014.09 1014.11 1014.08 1014.01 1013.94 1013.90 1013.90 1013.94 1014.01 1014.09 1014.15 1014.19 1014.19 1014.17 1014.14 1014.11 1014.10 1014.10 1014.11 1014.13 1014.14 1014.15 1014.14 1014.13
1015.84 1015.21 1014.67 1014.29 1014.06 1013.97 1013.96 1013.99 1014.00 1013.98 1013.91 1013.83 1013.76 1013.75 1013.79 1013.89 1014.02 1014.15 1014.25 1014.30 1014.28 1014.22 1014.15 1014.08 1014.04 1014.04 1014.08 1014.15 1014.21 1014.25 1014.26 1014.24 1014.20 1014.16 1014.12 1014.09 1014.07 1014.07 1014.07 1014.07 1014.06 1014.06 1014.07
1015.70 1015.18 1014.75 1014.47 1014.34 1014.32 1014.37 1014.43 1014.46 1014.45 1014.39 1014.31 1014.24 1014.20 1014.22 1014.27 1014.35 1014.42 1014.45 1014.45 1014.39 1014.32 1014.23 1014.17 1014.15 1014.16 1014.21 1014.26 1014.31 1014.33 1014.32 1014.28 1014.22 1014.16 1014.11 1014.07 1014.04 1014.02 1014.00 1013.98 1013.96 1013.95 1013.96
1015.58 1015.17 1014.86 1014.68 1014.62 1014.66 1014.74 1014.82 1014.86 1014.84 1014.78 1014.70 1014.62 1014.58 1014.57 1014.58 1014.61 1014.62 1014.60 1014.55 1014.47 1014.37 1014.29 1014.25 1014.24 1014.27 1014.32 1014.37 1014.40 1014.40 1014.37 1014.31 1014.24 1014.17 1014.11 1014.07 1014.03 1013.99 1013.95 1013.90 1013.87 1013.85 1013.85
1015.54 1015.23 1015.02 1014.92 1014.92 1014.98 1015.06 1015.12 1015.14 1015.11 1015.04 1014.95 1014.88 1014.83 1014.81 1014.81 1014.80 1014.77 1014.70 1014.61 1014.51 1014.41 1014.34 1014.31 1014.33 1014.38 1014.43 1014.48 1014.50 1014.47 1014.42 1014.34 1014.27 1014.19 1014.14 1014.09 1014.04 1013.99 1013.93 1013.86 1013.79 1013.75 1013.73
1015.62 1015.40 1015.25 1015.21 1015.22 1015.27 1015.32 1015.34 1015.31 1015.25 1015.16 1015.08 1015.01 1014.98 1014.96 1014.95 1014.92 1014.86 1014.77 1014.65 1014.53 1014.44 1014.38 1014.38 1014.42 1014.48 1014.55 1014.59 1014.59 1014.55 1014.48 1014.39 1014.30 1014.24 1014.19 1014.15 1014.10 1014.03 1013.94 1013.84 1013.73 1013.65 1013.60
1015.82 1015.65 1015.56 1015.54 1015.55 1015.56 1015.55 1015.50 1015.41 1015.30 1015.19 1015.11 1015.07 1015.05 1015.06 1015.05 1015.02 1014.95 1014.83 1014.70 1014.58 1014.49 1014.45 1014.46 1014.52 1014.60 1014.67 1014.71 1014.70 1014.64 1014.56 1014.47 1014.39 1014.33 1014.28 1014.24 1014.18 1014.09 1013.96 1013.81 1013.64 1013.50 1013.40
1016.09 1015.98 1015.92 1015.90 1015.89 1015.85 1015.77 1015.65 1015.49 1015.34 1015.22 1015.14 1015.11 1015.13 1015.16 1015.17 1015.14 1015.06 1014.93 1014.79 1014.66 1014.58 1014.55 1014.59 1014.66 1014.76 1014.83 1014.87 1014.85 1014.78 1014.70 1014.60 1014.52 1014.47 1014.42 1014.37 1014.28 1014.15 1013.96 1013.72 1013.48 1013.26 1013.09
1016.38 1016.31 1016.29 1016.28 1016.25 1016.16 1016.02 1015.83 1015.62 1015.43 1015.30 1015.23 1015.23 1015.27 1015.32 1015.34 1015.31 1015.22 1015.09 1014.94 1014.81 1014.74 1014.72 1014.78 1014.87 1014.98 1015.06 1015.10 1015.08 1015.01 1014.92 1014.83 1014.74 1014.68 1014.61 1014.52 1014.38 1014.17 1013.88 1013.54 1013.19 1012.86 1012.62
1016.63 1016.62 1016.64 1016.65 1016.60 1016.48 1016.30 1016.07 1015.83 1015.62 1015.48 1015.43 1015.44 1015.50 1015.56 1015.59 1015.56 1015.47 1015.33 1015.18 1015.05 1014.99 1014.99 1015.07 1015.18 1015.30 1015.40 1015.44 1015.42 1015.35 1015.26 1015.16 1015.06 1014.97 1014.86 1014.70 1014.47 1014.14 1013.72 1013.25 1012.75 1012.31 1011.98
1016.82 1016.88 1016.95 1016.98 1016.95 1016.82 1016.62 1016.37 1016.12 1015.91 1015.78 1015.74 1015.76 1015.83 1015.89 1015.91 1015.88 1015.78 1015.64 1015.50 1015.39 1015.35 1015.38 1015.48 1015.62 1015.76 1015.86 1015.91 1015.89 1015.82 1015.72 1015.60 1015.48 1015.34 1015.15 1014.90 1014.54 1014.07 1013.49 1012.85 1012.21 1011.63 1011.21
1016.95 1017.08 1017.20 1017.27 1017.26 1017.15 1016.96 1016.72 1016.48 1016.29 1016.17 1016.13 1016.15 1016.21 1016.26 1016.27 1016.23 1016.13 1016.00 1015.89 1015.81 1015.81 1015.88 1016.01 1016.18 1016.33 1016.45 1016.50 1016.48 1016.41 1016.30 1016.15 1015.98 1015.78 1015.50 1015.13 1014.62 1013.98 1013.23 1012.42 1011.61 1010.91 1010.39
1017.06 1017.25 1017.42 1017.53 1017.54 1017.46 1017.30 1017.09 1016.88 1016.71 1016.60 1016.56 1016.57 1016.61 1016.63 1016.62 1016.57 1016.48 1016.38 1016.31 1016.29 1016.34 1016.46 1016.64 1016.83 1017.01 1017.13 1017.18 1017.16 1017.08 1016.94 1016.77 1016.56 1016.28 1015.90 1015.40 1014.75 1013.95 1013.03 1012.05 1011.10 1010.27 1009.67
1017.21 1017.43 1017.63 1017.76 1017.80 1017.75 1017.62 1017.46 1017.28 1017.14 1017.03 1016.98 1016.97 1016.96 1016.95 1016.92 1016.86 1016.79 1016.74 1016.72 1016.77 1016.90 1017.08 1017.30 1017.53 1017.71 1017.84 1017.89 1017.86 1017.77 1017.62 1017.42 1017.16 1016.82 1016.36 1015.76 1014.98 1014.04 1012.98 1011.87 1010.80 1009.89 1009.22
1017.45 1017.67 1017.86 1017.99 1018.04 1018.01 1017.93 1017.80 1017.67 1017.55 1017.45 1017.37 1017.32 1017.27 1017.21 1017.15 1017.08 1017.04 1017.04 1017.10 1017.23 1017.43 1017.68 1017.94 1018.19 1018.39 1018.51 1018.55 1018.51 1018.41 1018.26 1018.05 1017.77 1017.40 1016.89 1016.22 1015.37 1014.34 1013.19 1012.00 1010.86 1009.89 1009.19
1017.81 1017.98 1018.13 1018.23 1018.28 1018.27 1018.22 1018.14 1018.04 1017.94 1017.84 1017.74 1017.64 1017.53 1017.42 1017.32 1017.25 1017.23 1017.28 1017.41 1017.62 1017.89 1018.19 1018.49 1018.76 1018.96 1019.07 1019.10 1019.07 1018.97 1018.83 1018.63 1018.37 1018.01 1017.50 1016.81 1015.94 1014.90 1013.73 1012.51 1011.36 1010.37 1009.65
1018.26 1018.36 1018.44 1018.50 1018.52 1018.53 1018.51 1018.47 1018.41 1018.34 1018.23 1018.10 1017.95 1017.78 1017.62 1017.48 1017.39 1017.39 1017.47 1017.66 1017.92 1018.25 1018.59 1018.91 1019.18 1019.37 1019.48 1019.51 1019.48 1019.41 1019.30 1019.15 1018.94 1018.63 1018.17 1017.54 1016.72 1015.72 1014.59 1013.42 1012.30 1011.35 1010.63
1018.75 1018.77 1018.77 1018.77 1018.77 1018.78 1018.79 1018.80 1018.78 1018.74 1018.64 1018.49 1018.30 1018.07 1017.85 1017.67 1017.55 1017.54 1017.65 1017.86 1018.16 1018.51 1018.86 1019.19 1019.45 1019.63 1019.73 1019.76 1019.76 1019.73 1019.68 1019.61 1019.49 1019.27 1018.91 1018.38 1017.66 1016.77 1015.75 1014.68 1013.64 1012.75 1012.07
1019.23 1019.16 1019.09 1019.03 1019.01 1019.02 1019.07 1019.12 1019.16 1019.16 1019.08 1018.92 1018.70 1018.42 1018.15 1017.92 1017.77 1017.74 1017.83 1018.04 1018.34 1018.68 1019.03 1019.34 1019.58 1019.74 1019.84 1019.89 1019.92 1019.95 1019.98 1020.01 1020.00 1019.90 1019.68 1019.29 1018.72 1017.98 1017.10 1016.17 1015.25 1014.44 1013.81
1019.63 1019.49 1019.36 1019.25 1019.21 1019.24 1019.32 1019.43 1019.53 1019.57 1019.52 1019.38 1019.14 1018.84 1018.52 1018.25 1018.06 1017.98 1018.04 1018.22 1018.49 1018.80 1019.11 1019.39 1019.60 1019.75 1019.86 1019.93 1020.01 1020.11 1020.24 1020.37 1020.48 1020.51 1020.43 1020.19 1019.79 1019.22 1018.52 1017.74 1016.97 1016.26 1015.69
1019.91 1019.74 1019.56 1019.43 1019.38 1019.42 1019.54 1019.70 1019.85 1019.94 1019.94 1019.82 1019.59 1019.28 1018.94 1018.64 1018.41 1018.29 1018.31 1018.44 1018.65 1018.91 1019.17 1019.40 1019.59 1019.72 1019.83 1019.95 1020.08 1020.25 1020.46 1020.69 1020.90 1021.06 1021.11 1021.02 1020.77 1020.37 1019.85 1019.24 1018.62 1018.03 1017.53
1020.09 1019.90 1019.70 1019.56 1019.50 1019.55 1019.70 1019.89 1020.10 1020.24 1020.28 1020.20 1020.00 1019.70 1019.37 1019.05 1018.79 1018.64 1018.61 1018.68 1018.83 1019.03 1019.23 1019.42 1019.57 1019.70 1019.83 1019.97 1020.15 1020.38 1020.65 1020.96 1021.26 1021.51 1021.66 1021.69 1021.59 1021.34 1020.98 1020.55 1020.07 1019.61 1019.19
1020.20 1020.02 1019.82 1019.67 1019.60 1019.65 1019.80 1020.02 1020.25 1020.43 1020.52 1020.48 1020.32 1020.06 1019.75 1019.44 1019.18 1019.00 1018.93 1018.95 1019.05 1019.18 1019.33 1019.48 1019.60 1019.73 1019.86 1020.02 1020.24 1020.51 1020.83 1021.18 1021.52 1021.83 1022.05 1022.18 1022.18 1022.08 1021.87 1021.59 1021.26 1020.92 1020.60
1020.27 1020.13 1019.94 1019.78 1019.71 1019.74 1019.87 1020.08 1020.32 1020.52 1020.63 1020.63 1020.52 1020.31 1020.04 1019.77 1019.53 1019.35 1019.26 1019.25 1019.30 1019.39 1019.49 1019.60 1019.70 1019.82 1019.95 1020.13 1020.36 1020.64 1020.97 1021.33 1021.69 1022.02 1022.28 1022.47 1022.56 1022.57 1022.50 1022.36 1022.18 1021.97 1021.75
Thickness
5743 5746 5747 5748 5749 5749 5749 5750 5751 5751 5752 5753 5754 5755 5756 5756 5757 5757 5758 5759 5759 5759 5760 5760 5760 5760 5761 5761 5761 5762 5763 5763 5763 5763 5763 5764 5764 5764 5765 5765 5765 5765 5765
5745 5745 5746 5746 5747 5747 5747 5748 5749 5749 5750 5751 5752 5752 5753 5754 5754 5755 5756 5756 5756 5757 5757 5757 5757 5758 5758 5759 5759 5760 5760 5760 5760 5761 5761 5761 5762 5762 5762 5763 5763 5763 5764
5744 5744 5745 5745 5745 5746 5746 5746 5747 5747 5748 5749 5749 5750 5750 5751 5751 5752 5752 5753 5753 5754 5754 5754 5755 5755 5756 5757 5757 5757 5757 5758 5758 5757 5757 5758 5759 5760 5760 5760 5761 5761 5762
5743 5743 5743 5743 5743 5743 5744 5744 5744 5745 5746 5746 5747 5747 5747 5748 5749 5749 5750 5750 5750 5750 5751 5751 5752 5753 5753 5754 5754 5754 5754 5754 5754 5754 5754 5755 5756 5756 5757 5757 5758 5758 5759
5741 5741 5741 5741 5741 5741 5741 5742 5742 5742 5743 5743 5744 5744 5744 5745 5745 5746 5747 5747 5747 5747 5748 5748 5749 5750 5750 5751 5751 5751 5751 5751 5751 5751 5751 5752 5752 5753 5754 5754 5755 5755 5756
5739 5739 5739 5739 5739 5739 5739 5739 5739 5740 5740 5740 5740 5741 5741 5742 5742 5743 5743 5744 5744 5744 5744 5745 5746 5746 5747 5747 5747 5747 5747 5747 5747 5747 5748 5748 5749 5749 5750 5751 5751 5752 5752
5736 5736 5736 5736 5736 5736 5736 5736 5736 5737 5737 5737 5737 5738 5739 5739 5739 5740 5740 5741 5741 5741 5741 5742 5742 5743 5744 5744 5744 5744 5743 5743 5743 5743 5744 5745 5745 5746 5746 5747 5747 5748 5748
5734 5734 5733 5733 5733 5733 5733 5733 5733 5734 5734 5734 5734 5735 5735 5736 5736 5737 5737 5737 5737 5737 5738 5738 5738 5739 5740 5740 5740 5740 5740 5739 5739 5740 5740 5740 5741 5742 5742 5743 5743 5744 5744
5731 5731 5730 5730 5730 5730 5730 5730 5730 5731 5731 5731 5731 5732 5732 5733 5733 5733 5733 5734 5734 5734 5734 5734 5734 5735 5735 5736 5736 5736 5735 5735 5735 5735 5736 5736 5737 5737 5738 5738 5739 5739 5740
5728 5728 5728 5728 5727 5727 5727 5727 5728 5728 5728 5728 5728 5728 5729 5729 5730 5730 5730 5730 5730 5730 5731 5731 5730 5730 5730 5731 5731 5731 5730 5730 5730 5731 5731 5732 5732 5733 5733 5734 5734 5735 5736
5725 5725 5725 5725 5725 5725 5724 5725 5725 5725 5725 5725 5725 5725 5725 5725 5726 5726 5726 5727 5727 5727 5727 5727 5726 5726 5725 5726 5725 5725 5725 5725 5726 5726 5726 5727 5728 5728 5729 5729 5730 5731 5731
5720 5722 5723 5723 5723 5722 5722 5722 5722 5722 5722 5722 5722 5722 5722 5722 5722 5722 5722 5723 5723 5723 5722 5722 5721 5721 5721 5720 5720 5720 5720 5720 5720 5721 5722 5723 5723 5724 5724 5725 5726 5726 5727
5719 5720 5721 5721 5721 5720 5720 5720 5719 5719 5719 5719 5719 5719 5718 5718 5718 5718 5719 5718 5718 5718 5718 5717 5716 5716 5716 5715 5715 5715 5715 5715 5715 5716 5717 5718 5719 5719 5720 5720 5721 5722 5723
5718 5718 5719 5719 5719 5718 5718 5718 5717 5717 5717 5717 5716 5716 5715 5715 5715 5715 5714 5714 5714 5714 5713 5713 5712 5711 5711 5710 5710 5710 5710 5710 5710 5711 5712 5713 5713 5714 5715 5716 5717 5718 5718
5716 5717 5718 5718 5717 5716 5716 5715 5715 5714 5714 5714 5714 5713 5713 5712 5711 5711 5710 5710 5710 5709 5709 5708 5707 5707 5706 5705 5705 5705 5705 5705 5705 5705 5706 5708 5708 5709 5711 5712 5712 5713 5714
5715 5715 5716 5716 5716 5715 5714 5713 5712 5712 5712 5712 5711 5711 5710 5710 5709 5708 5707 5706 5706 5705 5705 5704 5703 5702 5701 5700 5700 5699 5699 5699 5700 5701 5702 5702 5703 5704 5705 5706 5708 5709 5709
5714 5715 5714 5714 5714 5713 5712 5711 5710 5710 5710 5709 5709 5708 5708 5708 5707 5706 5704 5703 5702 5702 5702 5701 5700 5698 5697 5696 5695 5695 5695 5694 5695 5696 5697 5697 5698 5699 5700 5701 5703 5704 5705
5714 5713 5713 5713 5712 5711 5710 5709 5708 5708 5707 5707 5706 5706 5706 5705 5705 5703 5702 5700 5700 5699 5698 5697 5696 5694 5692 5690 5690 5689 5690 5690 5690 5691 5691 5692 5693 5694 5695 5696 5697 5698 5699
5713 5712 5710 5710 5709 5709 5708 5707 5706 5705 5705 5704 5704 5704 5703 5703 5702 5701 5699 5698 5697 5696 5695 5694 5691 5690 5687 5686 5686 5685 5685 5684 5685 5686 5686 5687 5687 5688 5690 5690 5691 5692 5693
5712 5710 5709 5708 5707 5706 5705 5704 5703 5702 5702 5702 5702 5702 5701 5701 5700 5699 5697 5696 5695 5693 5691 5690 5688 5686 5684 5683 5683 5681 5680 5680 5680 5680 5681 5682 5683 5684 5684 5685 5685 5686 5686
5709 5708 5707 5706 5705 5704 5702 5700 5698 5697 5698 5699 5699 5699 5699 5699 5698 5697 5696 5694 5692 5690 5688 5687 5685 5683 5680 5680 5678 5675 5675 5675 5675 5675 5676 5677 5677 5678 5679 5680 5680 5680 5680
5707 5706 5705 5704 5703 5702 5701 5699 5698 5697 5696 5696 5696 5697 5697 5697 5696 5695 5694 5692 5691 5689 5686 5685 5683 5680 5678 5677 5674 5670 5667 5667 5669 5671 5671 5671 5672 5673 5674 5674 5675 5675 5674
5705 5704 5704 5703 5702 5700 5699 5698 5696 5695 5694 5693 5693 5693 5694 5694 5694 5694 5693 5691 5689 5687 5685 5683 5682 5679 5675 5674 5673 5670 5664 5660 5661 5664 5665 5666 5667 5668 5669 5669 5669 5669 5670
5705 5704 5703 5701 5700 5699 5698 5696 5693 5690 5688 5689 5690 5691 5691 5692 5692 5692 5691 5690 5688 5686 5685 5683 5681 5679 5676 5672 5671 5670 5668 5665 5660 5657 5659 5661 5663 5663 5664 5664 5664 5665 5665
5704 5702 5701 5699 5698 5696 5695 5694 5692 5689 5688 5687 5688 5688 5688 5689 5690 5689 5689 5688 5686 5685 5684 5682 5681 5678 5676 5673 5670 5668 5666 5663 5661 5657 5654 5655 5657 5659 5659 5660 5660 5660 5660
5701 5700 5698 5697 5695 5694 5693 5691 5690 5688 5686 5685 5685 5684 5685 5685 5686 5687 5687 5686 5685 5684 5682 5681 5680 5677 5675 5673 5671 5669 5667 5663 5660 5657 5653 5652 5652 5653 5655 5656 5656 5656 5656